This is the latest recevied weather packets stored in our database for station/object IZ4UFQ-10. If no packets are shown the sender has not sent any weather packets the latest 1 day(s).
| Time | Temp. | Humidity | Pressure | Rain* | Wind** | Luminosity | Snow |
|---|---|---|---|---|---|---|---|
| 1777977379 | 15.56° C | 93% | 1012.6 hPa | 2.29 mm | 0 m/s | 137 W/m² | - |
| 1777977079 | 15.56° C | 93% | 1012.6 hPa | 2.29 mm | 0 m/s | 169 W/m² | - |
| 1777976778 | 15.56° C | 93% | 1012.6 hPa | 2.29 mm | 0 m/s | 227 W/m² | - |
| 1777976478 | 15.56° C | 92% | 1012.6 hPa | 2.29 mm | 0 m/s | 214 W/m² | - |
| 1777976178 | 15.56° C | 92% | 1012.7 hPa | 2.54 mm | 0 m/s | 141 W/m² | - |
| 1777975877 | 15.56° C | 92% | 1012.7 hPa | 2.54 mm | 0 m/s | 128 W/m² | - |
| 1777975577 | 15.56° C | 92% | 1012.6 hPa | 2.54 mm | 0 m/s | 142 W/m² | - |
| 1777975277 | 15.56° C | 91% | 1012.6 hPa | 2.03 mm | 0 m/s | 155 W/m² | - |
| 1777974977 | 15.56° C | 91% | 1012.8 hPa | 1.78 mm | 0 m/s | 95 W/m² | - |
| 1777974676 | 15.56° C | 91% | 1012.9 hPa | 1.02 mm | 0 m/s | 86 W/m² | - |
| 1777974376 | 15.56° C | 91% | 1012.9 hPa | 0.51 mm | 0 m/s | 83 W/m² | - |
| 1777974076 | 15.56° C | 91% | 1012.7 hPa | 0.25 mm | 0 m/s | 86 W/m² | - |
| 1777973775 | 15.56° C | 90% | 1012.7 hPa | 0.25 mm | 0 m/s | 72 W/m² | - |
| 1777973475 | 15.56° C | 90% | 1012.7 hPa | 0.25 mm | 0 m/s | 67 W/m² | - |
| 1777973175 | 15.56° C | 91% | 1012.6 hPa | 0.25 mm | 0 m/s | 132 W/m² | - |
| 1777972875 | 15.56° C | 90% | 1012.5 hPa | 0.25 mm | 0 m/s | 179 W/m² | - |
| 1777972574 | 15.56° C | 91% | 1012.5 hPa | 0 mm | 0 m/s | 234 W/m² | - |
| 1777972274 | 15.56° C | 91% | 1012.7 hPa | 0 mm | 0 m/s | 239 W/m² | - |
| 1777971974 | 15.56° C | 91% | 1012.9 hPa | 0 mm | 0 m/s | 304 W/m² | - |
| 1777971673 | 15° C | 91% | 1013.1 hPa | 0 mm | 0 m/s | 318 W/m² | - |
| 1777971373 | 15° C | 91% | 1012.9 hPa | 0 mm | 0 m/s | 186 W/m² | - |
| 1777971073 | 15° C | 91% | 1013.2 hPa | 0 mm | 0 m/s | 141 W/m² | - |
| 1777970773 | 15° C | 91% | 1013.3 hPa | 0 mm | 0 m/s | 69 W/m² | - |
| 1777970472 | 15° C | 91% | 1013.2 hPa | 0 mm | 0 m/s | 58 W/m² | - |
| 1777970172 | 15° C | 91% | 1013.1 hPa | 0 mm | 0 m/s | 65 W/m² | - |
* Rain latest hour (hover to see other rain measurements)
** Current wind speed in m/s (hover to see current wind gust speed)